| time (UTC) | temp F | wind direction | speed knots | gust knots | rain 1hr in | rain 24hr in | rain mn in | humidity % | barometer mb |
| 20260505112017 | 53 | 248 | 1.7 | 6.1 | 0.00 | 0.00 | 0.00 | 84 | 1009.3 |
| 20260505111017 | 52 | 225 | 0.9 | 3.5 | 0.00 | 0.00 | 0.00 | 84 | 1009.3 |
| 20260505102017 | 51 | 270 | 0.9 | 2.6 | 0.00 | 0.00 | 0.00 | 84 | 1008.6 |
| 20260505101017 | 51 | 248 | 0.9 | 3.5 | 0.00 | 0.00 | 0.00 | 83 | 1008.5 |
| 20260505100017 | 51 | 225 | 0.9 | 3.5 | 0.00 | 0.00 | 0.00 | 83 | 1008.5 |
| 20260505095059 | 51 | 248 | 0.9 | 3.5 | 0.00 | 0.00 | 0.00 | 83 | 1008.6 |
| 20260505094017 | 51 | 248 | 0.9 | 2.6 | 0.00 | 0.00 | 0.00 | 83 | 1008.6 |
| 20260505093018 | 51 | 158 | 0.9 | 5.2 | 0.00 | 0.00 | 0.00 | 82 | 1008.7 |
| 20260505092017 | 51 | 0.0 | 2.6 | 0.00 | 0.00 | 0.00 | 82 | 1008.7 | |
| 20260505091017 | 51 | 248 | 0.9 | 2.6 | 0.00 | 0.00 | 0.00 | 82 | 1008.8 |
| 20260505090017 | 51 | 248 | 0.9 | 4.3 | 0.00 | 0.00 | 0.00 | 82 | 1008.8 |
| 20260505085037 | 51 | 248 | 0.9 | 6.1 | 0.00 | 0.00 | 0.00 | 81 | 1008.8 |
| 20260505084017 | 51 | 225 | 0.9 | 5.2 | 0.00 | 0.00 | 0.00 | 81 | 1008.9 |
| 20260505083038 | 51 | 248 | 1.7 | 5.2 | 0.00 | 0.00 | 0.00 | 81 | 1008.9 |
| 20260505082017 | 51 | 225 | 0.9 | 5.2 | 0.00 | 0.00 | 0.00 | 80 | 1009.0 |
| 20260505081037 | 51 | 225 | 0.9 | 2.6 | 0.00 | 0.00 | 0.00 | 80 | 1009.1 |
| 20260505080018 | 51 | 248 | 0.9 | 3.5 | 0.00 | 0.00 | 0.00 | 79 | 1009.2 |
| 20260505075018 | 51 | 0.0 | 1.7 | 0.00 | 0.00 | 0.00 | 78 | 1009.1 | |
| 20260505074017 | 52 | 0.0 | 1.7 | 0.00 | 0.00 | 0.00 | 78 | 1009.2 | |
| 20260505073017 | 52 | 0.0 | 1.7 | 0.00 | 0.00 | 0.00 | 77 | 1009.2 | |
| 20260505072017 | 52 | 225 | 0.9 | 3.5 | 0.00 | 0.00 | 0.00 | 77 | 1009.3 |
| 20260505071018 | 52 | 248 | 0.9 | 1.7 | 0.00 | 0.00 | 0.00 | 77 | 1009.4 |
| 20260505070017 | 52 | 225 | 0.9 | 3.5 | 0.00 | 0.00 | 0.00 | 77 | 1009.2 |
| 20260505065017 | 52 | 0.0 | 1.7 | 0.00 | 0.00 | 0.00 | 77 | 1009.3 | |
| 20260505064018 | 52 | 0.0 | 1.7 | 0.00 | 0.00 | 0.00 | 77 | 1009.4 | |
| 20260505063017 | 52 | 248 | 0.9 | 2.6 | 0.00 | 0.00 | 0.00 | 78 | 1009.5 |
| 20260505062017 | 51 | 0.0 | 1.7 | 0.00 | 0.00 | 0.00 | 78 | 1009.5 | |
| 20260505061018 | 51 | 0.0 | 4.3 | 0.00 | 0.00 | 0.00 | 78 | 1009.6 | |
| 20260505060017 | 51 | 180 | 0.9 | 4.3 | 0.00 | 0.00 | 0.00 | 78 | 1009.7 |
| 20260505055017 | 51 | 0.0 | 0.9 | 0.00 | 0.00 | 0.00 | 79 | 1009.8 | |
| 20260505054018 | 51 | 0.0 | 1.7 | 0.00 | 0.00 | 0.00 | 79 | 1009.7 | |
| 20260505053017 | 51 | 0.0 | 1.7 | 0.00 | 0.00 | 0.00 | 78 | 1009.7 | |
| 20260505052017 | 51 | 0.0 | 0.9 | 0.00 | 0.00 | 0.00 | 78 | 1009.9 | |
| 20260505051017 | 51 | 0.0 | 2.6 | 0.00 | 0.00 | 0.00 | 78 | 1009.9 | |
| 20260505041038 | 52 | 248 | 0.9 | 4.3 | 0.00 | 0.00 | 0.00 | 76 | 1009.8 |
| 20260505040019 | 52 | 248 | 0.9 | 4.3 | 0.00 | 0.00 | 0.00 | 76 | 1009.8 |
| 20260505035016 | 52 | 248 | 0.9 | 4.3 | 0.00 | 0.00 | 0.00 | 75 | 1009.7 |
| 20260505034017 | 52 | 248 | 0.9 | 2.6 | 0.00 | 0.00 | 0.00 | 75 | 1009.5 |
| 20260505033017 | 52 | 248 | 0.9 | 3.5 | 0.00 | 0.00 | 0.00 | 74 | 1009.5 |
| 20260505032016 | 53 | 225 | 0.9 | 4.3 | 0.00 | 0.00 | 0.00 | 73 | 1009.5 |
| 20260505031016 | 53 | 248 | 0.9 | 4.3 | 0.00 | 0.00 | 0.00 | 72 | 1009.4 |
| 20260505030016 | 53 | 270 | 0.9 | 3.5 | 0.00 | 0.00 | 0.00 | 71 | 1009.4 |
| 20260505025016 | 54 | 248 | 0.9 | 3.5 | 0.00 | 0.00 | 0.00 | 70 | 1009.2 |
| 20260505024016 | 54 | 248 | 0.9 | 4.3 | 0.00 | 0.00 | 0.00 | 69 | 1009.3 |
| 20260505023016 | 54 | 248 | 0.9 | 5.2 | 0.00 | 0.00 | 0.00 | 68 | 1009.3 |
| 20260505022036 | 55 | 248 | 0.9 | 3.5 | 0.00 | 0.00 | 0.00 | 67 | 1009.4 |
| 20260505021016 | 55 | 248 | 0.9 | 2.6 | 0.00 | 0.00 | 0.00 | 66 | 1009.3 |
| 20260505020016 | 55 | 248 | 0.9 | 4.3 | 0.00 | 0.00 | 0.00 | 65 | 1009.2 |
| 20260505015056 | 56 | 248 | 1.7 | 5.2 | 0.00 | 0.00 | 0.00 | 64 | 1009.3 |
| 20260505014016 | 56 | 248 | 0.9 | 4.3 | 0.00 | 0.00 | 0.00 | 63 | 1009.3 |
| 20260505013016 | 57 | 248 | 0.9 | 4.3 | 0.00 | 0.00 | 0.00 | 62 | 1009.2 |
| 20260505012017 | 57 | 248 | 0.9 | 7.8 | 0.00 | 0.00 | 0.00 | 61 | 1009.0 |
| 20260505011016 | 57 | 248 | 0.9 | 4.3 | 0.00 | 0.00 | 0.00 | 60 | 1008.8 |
| 20260505010017 | 58 | 248 | 1.7 | 5.2 | 0.00 | 0.00 | 0.00 | 59 | 1008.7 |
| 20260505005016 | 58 | 248 | 0.9 | 3.5 | 0.00 | 0.00 | 0.00 | 58 | 1008.6 |
| 20260505004016 | 59 | 225 | 1.7 | 7.0 | 0.00 | 0.00 | 0.00 | 57 | 1008.3 |
| 20260505003016 | 59 | 248 | 0.9 | 3.5 | 0.00 | 0.00 | 0.00 | 56 | 1008.2 |
| 20260505002016 | 60 | 248 | 1.7 | 5.2 | 0.00 | 0.00 | 0.00 | 55 | 1008.1 |
| 20260505001016 | 60 | 248 | 1.7 | 4.3 | 0.00 | 0.00 | 0.00 | 54 | 1007.8 |
| 20260505000037 | 61 | 225 | 1.7 | 5.2 | 0.00 | 0.00 | 0.00 | 53 | 1007.6 |
| 20260504235037 | 61 | 248 | 0.9 | 4.3 | 0.00 | 0.00 | 0.00 | 52 | 1007.5 |
| 20260504234036 | 62 | 270 | 0.9 | 4.3 | 0.00 | 0.00 | 0.00 | 50 | 1007.3 |
| 20260504233016 | 64 | 203 | 1.7 | 8.7 | 0.00 | 0.00 | 0.00 | 45 | 1007.2 |
| 20260504232017 | 65 | 248 | 0.9 | 3.5 | 0.00 | 0.00 | 0.00 | 41 | 1006.9 |
| 20260504231016 | 65 | 0.0 | 0.9 | 0.00 | 0.00 | 0.00 | 40 | 1006.8 | |
| 20260504230016 | 65 | 225 | 1.7 | 8.7 | 0.00 | 0.00 | 0.00 | 40 | 1006.7 |
| 20260504225016 | 66 | 248 | 1.7 | 6.1 | 0.00 | 0.00 | 0.00 | 39 | 1006.7 |
| 20260504224016 | 66 | 248 | 2.6 | 13.0 | 0.00 | 0.00 | 0.00 | 39 | 1006.6 |
| 20260504223016 | 66 | 248 | 1.7 | 5.2 | 0.00 | 0.00 | 0.00 | 39 | 1006.6 |
| 20260504222016 | 66 | 248 | 2.6 | 7.0 | 0.00 | 0.00 | 0.00 | 38 | 1006.7 |
| 20260504221017 | 67 | 225 | 2.6 | 9.6 | 0.00 | 0.00 | 0.00 | 38 | 1006.7 |
| 20260504220016 | 67 | 248 | 0.9 | 4.3 | 0.00 | 0.00 | 0.00 | 38 | 1006.7 |
| 20260504215016 | 67 | 248 | 2.6 | 6.1 | 0.00 | 0.00 | 0.00 | 38 | 1006.9 |
| 20260504214016 | 68 | 225 | 1.7 | 4.3 | 0.00 | 0.00 | 0.00 | 38 | 1006.7 |
| 20260504213016 | 68 | 248 | 1.7 | 7.0 | 0.00 | 0.00 | 0.00 | 37 | 1006.9 |
| 20260504212017 | 67 | 248 | 2.6 | 5.2 | 0.00 | 0.00 | 0.00 | 37 | 1006.9 |
| 20260504211015 | 67 | 248 | 1.7 | 7.0 | 0.00 | 0.00 | 0.00 | 38 | 1006.9 |
| 20260504210016 | 67 | 248 | 2.6 | 7.8 | 0.00 | 0.00 | 0.00 | 38 | 1007.0 |
| 20260504205015 | 68 | 248 | 2.6 | 7.8 | 0.00 | 0.00 | 0.00 | 36 | 1007.0 |
| 20260504204016 | 68 | 248 | 1.7 | 4.3 | 0.00 | 0.00 | 0.00 | 37 | 1007.0 |
| 20260504203036 | 67 | 248 | 2.6 | 9.6 | 0.00 | 0.00 | 0.00 | 37 | 1006.9 |
| 20260504202015 | 68 | 225 | 1.7 | 6.1 | 0.00 | 0.00 | 0.00 | 36 | 1007.0 |
| 20260504201016 | 69 | 248 | 1.7 | 7.0 | 0.00 | 0.00 | 0.00 | 36 | 1007.2 |
| 20260504200018 | 67 | 248 | 1.7 | 6.1 | 0.00 | 0.00 | 0.00 | 37 | 1007.2 |
| 20260504195018 | 68 | 270 | 1.7 | 5.2 | 0.00 | 0.00 | 0.00 | 36 | 1007.3 |
| 20260504194018 | 68 | 225 | 1.7 | 5.2 | 0.00 | 0.00 | 0.00 | 36 | 1007.4 |
| 20260504193038 | 68 | 248 | 3.5 | 8.7 | 0.00 | 0.00 | 0.00 | 35 | 1007.3 |
| 20260504192018 | 67 | 248 | 2.6 | 11.3 | 0.00 | 0.00 | 0.00 | 36 | 1007.2 |
| 20260504191017 | 68 | 248 | 2.6 | 8.7 | 0.00 | 0.00 | 0.00 | 38 | 1007.5 |
| 20260504190038 | 67 | 248 | 2.6 | 7.0 | 0.00 | 0.00 | 0.00 | 37 | 1007.5 |
| 20260504185058 | 66 | 248 | 3.5 | 12.2 | 0.00 | 0.00 | 0.00 | 38 | 1007.5 |
| 20260504184019 | 67 | 270 | 2.6 | 8.7 | 0.00 | 0.00 | 0.00 | 35 | 1007.6 |
| 20260504183018 | 67 | 270 | 1.7 | 6.1 | 0.00 | 0.00 | 0.00 | 36 | 1007.6 |
| 20260504182018 | 67 | 248 | 2.6 | 7.8 | 0.00 | 0.00 | 0.00 | 35 | 1007.9 |
| 20260504181017 | 66 | 248 | 2.6 | 9.6 | 0.00 | 0.00 | 0.00 | 38 | 1008.0 |
| 20260504180018 | 67 | 248 | 4.3 | 8.7 | 0.00 | 0.00 | 0.00 | 35 | 1007.9 |
| 20260504175037 | 67 | 248 | 3.5 | 7.0 | 0.00 | 0.00 | 0.00 | 37 | 1008.0 |
| 20260504174038 | 66 | 248 | 3.5 | 8.7 | 0.00 | 0.00 | 0.00 | 37 | 1007.9 |
| 20260504173018 | 66 | 248 | 2.6 | 7.8 | 0.00 | 0.00 | 0.00 | 35 | 1007.9 |
| 20260504172017 | 65 | 248 | 3.5 | 8.7 | 0.00 | 0.00 | 0.00 | 35 | 1008.0 |
| 20260504171018 | 65 | 248 | 4.3 | 8.7 | 0.00 | 0.00 | 0.00 | 35 | 1008.2 |
| 20260504151018 | 60 | 248 | 4.3 | 9.6 | 0.00 | 0.00 | 0.00 | 42 | 1009.4 |
| 20260504141037 | 57 | 248 | 0.9 | 6.1 | 0.00 | 0.00 | 0.00 | 52 | 1009.7 |